TimeCDT,TemperatureF,Dew PointF,Humidity,Sea Level PressureIn,VisibilityMPH,Wind Direction,Wind SpeedMPH,Gust SpeedMPH,PrecipitationIn,Events,Conditions,WindDirDegrees,DateUTC
12:15 AM,59.0,57.2,94,29.73,2.0,North,10.4,-,N/A,Rain,Light Rain,350,2012-10-01 05:15:00
12:35 AM,59.0,57.2,94,29.72,1.8,NNW,6.9,-,N/A,Rain,Light Rain,340,2012-10-01 05:35:00
1:15 AM,59.0,57.2,94,29.71,2.5,NNW,8.1,-,N/A,Rain,Light Rain,340,2012-10-01 06:15:00
1:35 AM,59.0,57.2,94,29.71,5.0,NNW,9.2,-,N/A,Rain,Light Rain,340,2012-10-01 06:35:00
1:55 AM,59.0,57.2,94,29.71,3.0,NNW,8.1,-,N/A,Rain,Light Rain,330,2012-10-01 06:55:00
2:15 AM,59.0,57.2,94,29.71,1.5,NNW,9.2,-,0.02,Rain,Heavy Rain,330,2012-10-01 07:15:00
2:35 AM,59.0,55.4,88,29.70,3.0,NNW,10.4,20.7,0.02,Rain,Light Rain,340,2012-10-01 07:35:00
2:55 AM,59.0,55.4,88,29.70,3.0,NW,9.2,-,0.03,Rain,Rain,320,2012-10-01 07:55:00
3:15 AM,59.0,55.4,88,29.70,3.0,NNW,9.2,-,N/A,Rain,Light Rain,340,2012-10-01 08:15:00
3:35 AM,59.0,55.4,88,29.69,5.0,North,6.9,-,N/A,Rain,Light Rain,350,2012-10-01 08:35:00
3:55 AM,59.0,55.4,88,29.68,8.0,NNW,8.1,-,N/A,Rain,Light Rain,340,2012-10-01 08:55:00
4:15 AM,59.0,55.4,88,29.68,8.0,NW,5.8,-,N/A,Rain,Light Rain,320,2012-10-01 09:15:00
4:35 AM,59.0,55.4,88,29.68,5.0,NW,4.6,-,N/A,Rain,Light Rain,310,2012-10-01 09:35:00
4:55 AM,59.0,57.2,94,29.68,6.0,NW,5.8,-,0.01,Rain,Light Rain,310,2012-10-01 09:55:00
5:15 AM,59.0,57.2,94,29.68,7.0,NNW,6.9,-,N/A,Rain,Light Rain,330,2012-10-01 10:15:00
5:35 AM,59.0,57.2,94,29.69,3.0,NW,6.9,-,0.01,Rain,Rain,320,2012-10-01 10:35:00
5:55 AM,59.0,57.2,94,29.69,3.0,NW,6.9,-,0.04,Rain,Heavy Rain,310,2012-10-01 10:55:00
6:15 AM,59.0,57.2,94,29.69,4.0,NNW,3.5,-,0.01,Rain,Rain,340,2012-10-01 11:15:00
6:35 AM,59.0,57.2,94,29.69,4.0,NW,5.8,-,0.05,Rain,Heavy Rain,320,2012-10-01 11:35:00
6:55 AM,59.0,57.2,94,29.69,5.0,NW,4.6,-,0.07,Rain,Heavy Rain,310,2012-10-01 11:55:00
7:15 AM,59.0,57.2,94,29.69,4.0,NNW,4.6,-,0.01,Rain,Rain,330,2012-10-01 12:15:00
7:35 AM,59.0,57.2,94,29.69,3.0,NNW,3.5,-,0.01,Rain,Light Rain,330,2012-10-01 12:35:00
7:55 AM,59.0,57.2,94,29.69,5.0,NNW,5.8,-,0.01,Rain,Light Rain,340,2012-10-01 12:55:00
8:15 AM,59.0,57.2,94,29.70,5.0,NNW,3.5,-,N/A,,Partly Cloudy,330,2012-10-01 13:15:00
8:35 AM,60.8,59.0,94,29.70,5.0,NNW,4.6,-,N/A,,Partly Cloudy,330,2012-10-01 13:35:00
8:55 AM,62.6,59.0,88,29.71,6.0,NNW,3.5,-,N/A,,Scattered Clouds,330,2012-10-01 13:55:00
9:15 AM,62.6,59.0,88,29.71,7.0,NNW,6.9,-,N/A,,Scattered Clouds,330,2012-10-01 14:15:00
9:35 AM,62.6,59.0,88,29.72,8.0,NW,8.1,-,N/A,Rain,Light Rain,310,2012-10-01 14:35:00
9:55 AM,64.4,59.0,83,29.72,9.0,NW,8.1,-,N/A,,Clear,320,2012-10-01 14:55:00
10:15 AM,64.4,59.0,83,29.72,9.0,NW,5.8,-,N/A,,Partly Cloudy,320,2012-10-01 15:15:00
10:35 AM,66.2,59.0,78,29.72,10.0,NW,5.8,-,N/A,,Partly Cloudy,320,2012-10-01 15:35:00
10:55 AM,66.2,59.0,78,29.73,10.0,NNW,5.8,-,N/A,,Mostly Cloudy,330,2012-10-01 15:55:00
11:15 AM,68.0,57.2,68,29.73,10.0,NNW,8.1,-,N/A,,Mostly Cloudy,340,2012-10-01 16:15:00
11:35 AM,68.0,57.2,68,29.72,10.0,NNW,8.1,-,N/A,,Scattered Clouds,340,2012-10-01 16:35:00
11:55 AM,69.8,55.4,60,29.72,10.0,NNW,10.4,16.1,N/A,,Mostly Cloudy,340,2012-10-01 16:55:00
12:15 PM,71.6,53.6,53,29.72,10.0,NNW,9.2,16.1,N/A,,Scattered Clouds,330,2012-10-01 17:15:00
12:35 PM,71.6,51.8,50,29.72,10.0,NNW,12.7,18.4,N/A,,Partly Cloudy,340,2012-10-01 17:35:00
12:55 PM,71.6,51.8,50,29.71,10.0,North,10.4,-,N/A,,Clear,360,2012-10-01 17:55:00
1:15 PM,73.4,51.8,47,29.70,10.0,NNW,12.7,19.6,N/A,,Partly Cloudy,340,2012-10-01 18:15:00
1:35 PM,73.4,50.0,44,29.70,10.0,North,11.5,17.3,N/A,,Clear,350,2012-10-01 18:35:00
2:15 PM,73.4,48.2,41,29.70,10.0,North,11.5,18.4,N/A,,Clear,360,2012-10-01 19:15:00
2:35 PM,73.4,48.2,41,29.69,10.0,North,9.2,-,N/A,,Clear,10,2012-10-01 19:35:00
2:55 PM,73.4,50.0,44,29.70,10.0,North,8.1,-,N/A,,Clear,350,2012-10-01 19:55:00
3:15 PM,75.2,50.0,41,29.70,10.0,NNW,8.1,-,N/A,,Clear,340,2012-10-01 20:15:00
3:35 PM,73.4,50.0,44,29.70,10.0,NW,8.1,-,N/A,,Clear,320,2012-10-01 20:35:00
4:15 PM,73.4,48.2,41,29.70,10.0,NNW,5.8,-,N/A,,Clear,330,2012-10-01 21:15:00
4:35 PM,73.4,50.0,44,29.70,10.0,NNW,5.8,-,N/A,,Clear,330,2012-10-01 21:35:00
4:55 PM,75.2,50.0,41,29.70,10.0,North,5.8,-,N/A,,Clear,350,2012-10-01 21:55:00
5:15 PM,71.6,53.6,53,29.71,10.0,NW,5.8,-,N/A,,Clear,320,2012-10-01 22:15:00
5:35 PM,69.8,53.6,56,29.71,10.0,WNW,3.5,-,N/A,,Clear,290,2012-10-01 22:35:00
5:55 PM,69.8,55.4,60,29.71,10.0,Calm,Calm,-,N/A,,Clear,0,2012-10-01 22:55:00
6:15 PM,68.0,57.2,68,29.72,10.0,Calm,Calm,-,N/A,,Clear,0,2012-10-01 23:15:00
6:35 PM,66.2,57.2,73,29.73,10.0,WSW,3.5,-,N/A,,Clear,250,2012-10-01 23:35:00
6:55 PM,66.2,57.2,73,29.73,10.0,Calm,Calm,-,N/A,,Clear,0,2012-10-01 23:55:00
7:15 PM,64.4,59.0,83,29.73,10.0,Calm,Calm,-,N/A,,Clear,0,2012-10-02 00:15:00
7:35 PM,64.4,57.2,77,29.73,10.0,Calm,Calm,-,N/A,,Clear,0,2012-10-02 00:35:00
7:55 PM,64.4,57.2,77,29.74,10.0,Calm,Calm,-,N/A,,Clear,0,2012-10-02 00:55:00
8:15 PM,64.4,57.2,77,29.74,10.0,Calm,Calm,-,N/A,,Clear,0,2012-10-02 01:15:00
8:35 PM,64.4,59.0,83,29.74,10.0,Calm,Calm,-,N/A,,Clear,0,2012-10-02 01:35:00
8:55 PM,62.6,59.0,88,29.75,10.0,Calm,Calm,-,N/A,,Clear,0,2012-10-02 01:55:00
9:15 PM,62.6,57.2,82,29.76,10.0,Calm,Calm,-,N/A,,Clear,0,2012-10-02 02:15:00
9:35 PM,62.6,57.2,82,29.76,10.0,Calm,Calm,-,N/A,,Clear,0,2012-10-02 02:35:00
9:55 PM,62.6,57.2,82,29.77,10.0,Calm,Calm,-,N/A,,Clear,0,2012-10-02 02:55:00
10:15 PM,60.8,57.2,88,29.78,10.0,Calm,Calm,-,N/A,,Clear,0,2012-10-02 03:15:00
10:35 PM,60.8,57.2,88,29.79,10.0,Calm,Calm,-,N/A,,Clear,0,2012-10-02 03:35:00
11:15 PM,60.8,57.2,88,29.80,9.0,Calm,Calm,-,N/A,,Clear,0,2012-10-02 04:15:00
11:35 PM,59.0,57.2,94,29.80,10.0,Calm,Calm,-,N/A,,Clear,0,2012-10-02 04:35:00
11:55 PM,59.0,57.2,94,29.79,10.0,Calm,Calm,-,N/A,,Clear,0,2012-10-02 04:55:00